| time (UTC) | temp F | wind direction | speed MPH | gust MPH | rain 1hr in | rain 24hr in | rain mn in | humidity % | barometer mb |
| 20260904015926 | 74 | 180 | 0.0 | 0.0 | 0.00 | 0.03 | 0.03 | 90 | 1028.4 |
| 20260904014927 | 74 | 180 | 0.0 | 0.0 | 0.00 | 0.03 | 0.03 | 90 | 1028.4 |
| 20260904012926 | 74 | 180 | 0.0 | 0.0 | 0.00 | 0.03 | 0.03 | 89 | 1028.8 |
| 20260904011928 | 74 | 180 | 0.0 | 0.0 | 0.00 | 0.03 | 0.03 | 89 | 1028.7 |
| 20260904011026 | 74 | 180 | 0.0 | 0.0 | 0.00 | 0.03 | 0.03 | 88 | 1028.6 |
| 20260904010026 | 75 | 180 | 0.0 | 0.0 | 0.00 | 0.03 | 0.03 | 87 | 1028.8 |
| 20260904005027 | 75 | 180 | 0.0 | 0.0 | 0.00 | 0.03 | 0.03 | 87 | 1028.6 |
| 20260904004028 | 75 | 180 | 0.0 | 0.0 | 0.00 | 0.03 | 0.03 | 87 | 1028.2 |
| 20260904003027 | 75 | 180 | 0.0 | 0.0 | 0.00 | 0.03 | 0.03 | 87 | 1028.4 |
| 20260904001126 | 76 | 180 | 0.0 | 0.0 | 0.00 | 0.03 | 0.03 | 86 | 1028.3 |
| 20260904000127 | 76 | 180 | 0.0 | 0.0 | 0.00 | 0.03 | 0.03 | 85 | 1027.9 |
| 20260903235128 | 77 | 180 | 0.0 | 0.0 | 0.00 | 0.03 | 0.03 | 83 | 1027.9 |
| 20260903233226 | 77 | 180 | 0.0 | 0.0 | 0.00 | 0.03 | 0.03 | 82 | 1027.7 |
| 20260903232325 | 78 | 180 | 0.0 | 0.0 | 0.00 | 0.03 | 0.03 | 81 | 1027.8 |
| 20260903231328 | 78 | 180 | 0.0 | 0.0 | 0.00 | 0.03 | 0.03 | 80 | 1027.8 |
| 20260903230426 | 79 | 180 | 0.0 | 0.0 | 0.00 | 0.03 | 0.03 | 79 | 1028.0 |
| 20260903225426 | 80 | 180 | 0.0 | 0.0 | 0.00 | 0.03 | 0.03 | 79 | 1028.1 |
| 20260903224428 | 80 | 180 | 0.0 | 0.0 | 0.00 | 0.03 | 0.03 | 78 | 1028.2 |
| 20260903223526 | 81 | 180 | 0.0 | 0.0 | 0.00 | 0.03 | 0.03 | 76 | 1028.2 |
| 20260903222625 | 81 | 180 | 0.0 | 0.0 | 0.00 | 0.03 | 0.03 | 76 | 1028.1 |
| 20260903221628 | 82 | 180 | 0.0 | 0.0 | 0.00 | 0.03 | 0.03 | 76 | 1028.0 |
| 20260903220726 | 82 | 180 | 0.0 | 0.0 | 0.00 | 0.03 | 0.03 | 75 | 1028.1 |
| 20260903215727 | 82 | 180 | 0.0 | 0.0 | 0.00 | 0.03 | 0.03 | 74 | 1027.9 |
| 20260903214727 | 83 | 180 | 0.0 | 0.0 | 0.00 | 0.03 | 0.03 | 71 | 1028.1 |
| 20260903213729 | 83 | 180 | 0.0 | 0.0 | 0.00 | 0.03 | 0.03 | 71 | 1027.9 |
| 20260903212725 | 83 | 180 | 0.0 | 0.0 | 0.00 | 0.03 | 0.03 | 71 | 1028.0 |
| 20260903211727 | 83 | 180 | 0.0 | 0.0 | 0.00 | 0.03 | 0.03 | 71 | 1028.0 |
| 20260903210728 | 83 | 180 | 0.0 | 0.0 | 0.00 | 0.03 | 0.03 | 71 | 1028.0 |
| 20260903202926 | 82 | 180 | 0.0 | 0.0 | 0.00 | 0.05 | 0.03 | 71 | 1028.1 |
| 20260903201926 | 82 | 180 | 0.0 | 0.0 | 0.00 | 0.13 | 0.03 | 71 | 1028.0 |
| 20260903200928 | 82 | 180 | 0.0 | 0.0 | 0.00 | 0.17 | 0.03 | 71 | 1028.0 |
| 20260903195928 | 82 | 180 | 0.0 | 0.0 | 0.00 | 0.23 | 0.03 | 71 | 1028.2 |
| 20260903195025 | 82 | 180 | 0.0 | 0.0 | 0.00 | 0.27 | 0.03 | 71 | 1028.3 |
| 20260903194125 | 82 | 180 | 0.0 | 0.0 | 0.00 | 0.32 | 0.03 | 70 | 1028.4 |
| 20260903193126 | 82 | 180 | 0.0 | 0.0 | 0.00 | 0.34 | 0.03 | 69 | 1028.3 |
| 20260903192127 | 83 | 180 | 0.0 | 0.0 | 0.00 | 0.34 | 0.03 | 68 | 1028.5 |
| 20260903190126 | 82 | 180 | 0.0 | 0.0 | 0.00 | 0.34 | 0.03 | 69 | 1028.7 |
| 20260903185126 | 83 | 180 | 0.0 | 0.0 | 0.00 | 0.34 | 0.03 | 67 | 1028.6 |
| 20260903183227 | 82 | 180 | 0.0 | 0.0 | 0.00 | 0.34 | 0.03 | 69 | 1028.8 |
| 20260903182227 | 83 | 180 | 0.0 | 0.0 | 0.00 | 0.34 | 0.03 | 67 | 1028.9 |
| 20260903181226 | 83 | 180 | 0.0 | 0.0 | 0.00 | 0.34 | 0.03 | 67 | 1028.9 |
| 20260903180226 | 82 | 180 | 0.0 | 1.0 | 0.00 | 0.34 | 0.03 | 69 | 1028.9 |
| 20260903175325 | 82 | 180 | 0.0 | 0.0 | 0.00 | 0.34 | 0.03 | 69 | 1029.1 |
| 20260903174327 | 81 | 180 | 0.0 | 0.0 | 0.00 | 0.34 | 0.03 | 70 | 1029.1 |
| 20260903172427 | 81 | 180 | 0.0 | 1.0 | 0.00 | 0.34 | 0.03 | 69 | 1029.3 |
| 20260903171525 | 81 | 180 | 0.0 | 0.0 | 0.00 | 0.34 | 0.03 | 71 | 1029.2 |
| 20260903170529 | 81 | 180 | 0.0 | 0.0 | 0.00 | 0.34 | 0.03 | 71 | 1029.3 |
| 20260903164528 | 82 | 180 | 0.0 | 1.0 | 0.00 | 0.34 | 0.03 | 72 | 1029.3 |
| 20260903163526 | 81 | 180 | 0.0 | 0.0 | 0.00 | 0.34 | 0.03 | 74 | 1029.3 |
| 20260903162527 | 80 | 180 | 0.0 | 1.0 | 0.00 | 0.34 | 0.03 | 76 | 1029.5 |
| 20260903161425 | 79 | 180 | 0.0 | 1.0 | 0.00 | 0.34 | 0.03 | 78 | 1029.7 |
| 20260903160427 | 78 | 180 | 0.0 | 1.0 | 0.00 | 0.34 | 0.03 | 79 | 1029.9 |
| 20260903155427 | 78 | 180 | 0.0 | 0.0 | 0.00 | 0.34 | 0.03 | 79 | 1029.7 |
| 20260903154427 | 79 | 180 | 0.0 | 0.0 | 0.00 | 0.34 | 0.03 | 80 | 1029.9 |
| 20260903153428 | 78 | 180 | 0.0 | 0.0 | 0.00 | 0.34 | 0.03 | 80 | 1029.8 |
| 20260903152527 | 78 | 180 | 0.0 | 1.0 | 0.00 | 0.34 | 0.03 | 82 | 1030.0 |
| 20260903151526 | 77 | 180 | 0.0 | 0.0 | 0.00 | 0.34 | 0.03 | 83 | 1030.2 |
| 20260903150527 | 77 | 180 | 0.0 | 1.0 | 0.00 | 0.34 | 0.03 | 85 | 1030.2 |
| 20260903145528 | 76 | 180 | 0.0 | 1.0 | 0.00 | 0.34 | 0.03 | 84 | 1030.2 |
| 20260903144526 | 78 | 180 | 0.0 | 2.0 | 0.00 | 0.34 | 0.03 | 85 | 1030.3 |
| 20260903143626 | 77 | 180 | 0.0 | 1.0 | 0.00 | 0.34 | 0.03 | 87 | 1030.1 |
| 20260903142627 | 77 | 180 | 0.0 | 2.0 | 0.00 | 0.34 | 0.03 | 90 | 1030.1 |
| 20260903140625 | 76 | 180 | 0.0 | 2.0 | 0.00 | 0.34 | 0.03 | 93 | 1030.5 |
| 20260903135628 | 74 | 180 | 0.0 | 0.0 | 0.00 | 0.34 | 0.03 | 94 | 1030.3 |
| 20260903134626 | 73 | 180 | 0.0 | 0.0 | 0.00 | 0.34 | 0.03 | 94 | 1030.6 |
| 20260903132627 | 73 | 202 | 0.0 | 0.0 | 0.00 | 0.34 | 0.03 | 94 | 1031.0 |
| 20260903131626 | 74 | 180 | 0.0 | 0.0 | 0.00 | 0.34 | 0.03 | 94 | 1031.0 |
| 20260903130627 | 74 | 225 | 0.0 | 0.0 | 0.00 | 0.34 | 0.03 | 95 | 1031.2 |
| 20260903125724 | 74 | 225 | 0.0 | 0.0 | 0.00 | 0.34 | 0.03 | 95 | 1031.0 |
| 20260903124726 | 73 | 292 | 0.0 | 0.0 | 0.00 | 0.34 | 0.03 | 95 | 1031.4 |
| 20260903122727 | 73 | 337 | 0.0 | 1.0 | 0.00 | 0.34 | 0.03 | 95 | 1031.5 |
| 20260903121725 | 73 | 180 | 0.0 | 0.0 | 0.00 | 0.34 | 0.03 | 95 | 1031.6 |
| 20260903114725 | 72 | 180 | 0.0 | 0.0 | 0.00 | 0.34 | 0.03 | 95 | 1031.5 |
| 20260903113725 | 72 | 180 | 0.0 | 0.0 | 0.00 | 0.34 | 0.03 | 95 | 1031.6 |
| 20260903112727 | 72 | 180 | 0.0 | 0.0 | 0.00 | 0.34 | 0.03 | 95 | 1031.5 |
| 20260903110725 | 72 | 180 | 0.0 | 0.0 | 0.00 | 0.34 | 0.03 | 95 | 1031.8 |
| 20260903105728 | 72 | 180 | 0.0 | 0.0 | 0.00 | 0.34 | 0.03 | 95 | 1031.8 |
| 20260903104825 | 72 | 180 | 0.0 | 0.0 | 0.00 | 0.34 | 0.03 | 95 | 1032.0 |
| 20260903102827 | 71 | 180 | 0.0 | 0.0 | 0.00 | 0.34 | 0.03 | 95 | 1031.5 |
| 20260903101828 | 71 | 180 | 0.0 | 0.0 | 0.00 | 0.34 | 0.03 | 95 | 1031.2 |
| 20260903100826 | 71 | 292 | 0.0 | 0.0 | 0.00 | 0.34 | 0.03 | 95 | 1031.3 |
| 20260903095825 | 71 | 292 | 0.0 | 0.0 | 0.00 | 0.34 | 0.03 | 95 | 1030.9 |
| 20260903093827 | 71 | 292 | 0.0 | 0.0 | 0.00 | 0.34 | 0.03 | 94 | 1030.7 |
| 20260903092831 | 71 | 292 | 0.0 | 0.0 | 0.00 | 0.34 | 0.03 | 94 | 1030.5 |
| 20260903090928 | 71 | 292 | 0.0 | 0.0 | 0.00 | 0.34 | 0.03 | 94 | 1030.7 |
| 20260903090025 | 71 | 292 | 0.0 | 0.0 | 0.01 | 0.34 | 0.03 | 94 | 1030.8 |
| 20260903085028 | 71 | 292 | 0.0 | 0.0 | 0.01 | 0.34 | 0.03 | 94 | 1030.9 |
| 20260903083127 | 71 | 292 | 0.0 | 0.0 | 0.01 | 0.34 | 0.03 | 94 | 1030.7 |
| 20260903082225 | 71 | 292 | 0.0 | 0.0 | 0.01 | 0.34 | 0.03 | 94 | 1031.1 |
| 20260903081225 | 71 | 292 | 0.0 | 0.0 | 0.01 | 0.34 | 0.03 | 94 | 1031.6 |
| 20260903080325 | 71 | 248 | 0.0 | 0.0 | 0.00 | 0.33 | 0.02 | 94 | 1031.7 |
| 20260903075325 | 71 | 247 | 0.0 | 0.0 | 0.00 | 0.33 | 0.02 | 94 | 1031.9 |
| 20260903074326 | 71 | 247 | 0.0 | 0.0 | 0.00 | 0.33 | 0.02 | 94 | 1032.1 |
| 20260903073326 | 71 | 247 | 0.0 | 0.0 | 0.00 | 0.33 | 0.02 | 94 | 1032.2 |
| 20260903072325 | 71 | 247 | 0.0 | 0.0 | 0.00 | 0.33 | 0.02 | 94 | 1032.3 |
| 20260903071327 | 71 | 292 | 0.0 | 0.0 | 0.01 | 0.33 | 0.02 | 94 | 1032.1 |
| 20260903070327 | 71 | 292 | 1.0 | 2.0 | 0.01 | 0.33 | 0.02 | 94 | 1032.0 |
| 20260903064329 | 71 | 337 | 0.0 | 0.0 | 0.01 | 0.33 | 0.02 | 94 | 1031.7 |
| 20260903063425 | 71 | 337 | 0.0 | 0.0 | 0.01 | 0.33 | 0.02 | 94 | 1031.8 |
| 20260903062525 | 70 | 337 | 0.0 | 0.0 | 0.02 | 0.33 | 0.02 | 94 | 1031.9 |
| 20260903061526 | 70 | 337 | 0.0 | 0.0 | 0.01 | 0.32 | 0.01 | 94 | 1031.9 |
| 20260903060528 | 70 | 337 | 0.0 | 0.0 | 0.01 | 0.32 | 0.01 | 94 | 1032.6 |
| 20260903053626 | 70 | 292 | 0.0 | 0.0 | 0.01 | 0.32 | 0.01 | 94 | 1033.5 |
| 20260903052628 | 70 | 202 | 0.0 | 0.0 | 0.00 | 0.31 | 0.00 | 94 | 1033.5 |
| 20260903051625 | 70 | 202 | 0.0 | 0.0 | 0.00 | 0.31 | 0.00 | 93 | 1033.7 |
| 20260903050624 | 70 | 202 | 0.0 | 0.0 | 0.00 | 0.31 | 0.00 | 93 | 1033.7 |
| 20260903045628 | 70 | 202 | 0.0 | 0.0 | 0.00 | 0.31 | 0.00 | 93 | 1033.6 |
| 20260903044627 | 70 | 202 | 0.0 | 0.0 | 0.00 | 0.31 | 0.00 | 93 | 1033.7 |
| 20260903043725 | 69 | 202 | 0.0 | 0.0 | 0.00 | 0.31 | 0.00 | 93 | 1033.8 |
| 20260903042726 | 69 | 202 | 0.0 | 0.0 | 0.00 | 0.31 | 0.00 | 93 | 1034.0 |
| 20260903041826 | 69 | 270 | 0.0 | 0.0 | 0.00 | 0.31 | 0.00 | 93 | 1034.0 |
| 20260903034912 | 69 | 270 | 0.0 | 0.0 | 0.00 | 0.31 | 0.31 | 93 | 1034.0 |
| 20260903034009 | 69 | 42 | 0.0 | 1.0 | 0.00 | 0.31 | 0.31 | 93 | 1033.9 |
| 20260903033010 | 69 | 67 | 0.0 | 0.0 | 0.00 | 0.31 | 0.31 | 93 | 1033.8 |
| 20260903032011 | 69 | 67 | 0.0 | 0.0 | 0.00 | 0.31 | 0.31 | 93 | 1034.0 |
| 20260903031010 | 69 | 67 | 0.0 | 0.0 | 0.00 | 0.31 | 0.31 | 93 | 1034.3 |
| 20260903030109 | 69 | 67 | 0.0 | 0.0 | 0.00 | 0.31 | 0.31 | 93 | 1034.5 |
| 20260903025110 | 69 | 67 | 0.0 | 0.0 | 0.00 | 0.31 | 0.31 | 93 | 1034.5 |
| 20260903024209 | 69 | 67 | 0.0 | 0.0 | 0.00 | 0.31 | 0.31 | 93 | 1034.5 |
| 20260903023209 | 68 | 90 | 0.0 | 0.0 | 0.00 | 0.31 | 0.31 | 93 | 1034.5 |
| 20260903021210 | 68 | 67 | 0.0 | 2.0 | 0.00 | 0.31 | 0.31 | 93 | 1034.5 |